Location: Brno
(49.2000°N, 16.6330°E)
Time: 17:19:16
(UTC+02:00)

Transit 4A - Pass Details

Date: 01 August 2021
Orbit: 871 x 974 km, 66.8° (Epoch: 16 September)

Event Time Altitude Azimuth Distance (km) Brightness Sun altitude
Rises 05:55:47 0° 314° (NW) 3,468 10.7 3.6°
Reaches altitude 10° 05:59:31 10° 337° (NNW) 2,530 10.2 4.1°
Maximum altitude 06:02:43 15° 11° (N) 2,208 10.4 4.6°
Drops below altitude 10° 06:05:56 10° 45° (NE) 2,541 11.7 5.1°
Sets 06:09:42 0° 68° (ENE) 3,493 13.9 5.7°
